Location: Dompnac
(44.5644°N, 4.1026°E)
Time: 11:00:57
(UTC+00:00)

Cosmos 1891 Rocket - Pass Details

Date: 21 January 2021
Orbit: 934 x 1018 km, 82.9° (Epoch: 24 February)

Event Time Altitude Azimuth Distance (km) Brightness Sun altitude
Rises 17:38:25 0° 334° (NNW) 3,600 7.6 -10.9°
Reaches altitude 10° 17:42:13 10° 310° (NW) 2,653 7.3 -11.5°
Maximum altitude 17:45:04 14° 281° (WNW) 2,386 7.5 -12.0°
Drops below altitude 10° 17:47:56 10° 253° (WSW) 2,657 8.3 -12.5°
Sets 17:51:46 0° 229° (SW) 3,608 8.7 -13.1°
